Home > Weather > Brno > Past weeks

Flag for Czech Republic Past Weather in Brno, Czech Republic — Yesterday and Last 2 Weeks

Now
58 °F

Passing clouds.


Feels Like: 58 °F
Forecast: 53 / 71 °F
Wind: 3 mph from North

Location: Brno / Turany

Current Time: May 26, 2016 at 2:48:42 AM

Latest Report: May 26, 2016 at 2:00 AM


Visibility: 7 mi

Pressure: 29.95 "Hg

Humidity: 80%

Dew Point: 52 °F

Location of BrnoLocation

Past Weather in Brno — Graph

°F

Brno Temperature Yesterday

Maximum temperature yesterday: 71 °F (at 3:00 PM)
Minimum temperature yesterday: 56 °F (at 1:00 AM)
Average temperature yesterday: 64 °F

High & Low Weather Summary for the Past Weeks

 TemperatureHumidityPressure
High79 °F (May 23, 4:00 PM)98% (May 13, 3:00 AM)30.13 "Hg (May 13, 3:00 AM)
Low36 °F (May 16, 5:00 AM)37% (May 21, 5:00 PM)29.32 "Hg (May 13, 6:00 AM)
Average58 °F69%29.84 "Hg
* Reported May 11 1:00 AM — May 26 1:00 AM, Brno, Weather by CustomWeather, © 2016

Note: Actual official high and low records may vary slightly from our data, if they occured in-between our weather recording intervals... More about our weather records

Advertising

Brno Weather History for the Previous 24 Hours

Scroll right to see more
 ConditionsComfort  
Time TempWeatherWind HumidityBarometerVisibility
1:00 AM
Thu, May 26
59 °FPassing clouds.1 mph79%29.93 "Hg7 mi
12:00 AM59 °FPassing clouds.2 mph79%29.93 "Hg7 mi
11:00 PM
Wed, May 25
60 °FPassing clouds.1 mph77%29.92 "Hg11 mi
10:00 PM61 °FPassing clouds.5 mph76%29.91 "Hg12 mi
9:00 PM64 °FPassing clouds.7 mph69%29.89 "Hg16 mi
8:00 PM65 °FPassing clouds.6 mph67%29.87 "Hg19 mi
7:00 PM69 °FPassing clouds.6 mph61%29.85 "Hg16 mi
6:00 PM69 °FPassing clouds.6 mph62%29.85 "Hg16 mi
5:00 PM70 °FPassing clouds.8 mph61%29.84 "Hg16 mi
4:00 PM71 °FPassing clouds.8 mph62%29.84 "Hg16 mi
3:00 PM71 °FPassing clouds.7 mph59%29.84 "Hg16 mi
2:00 PM71 °FPassing clouds.7 mph61%29.85 "Hg16 mi
1:00 PM70 °FPassing clouds.7 mph64%29.85 "Hg12 mi
12:00 PM69 °FPassing clouds.7 mph63%29.86 "Hg12 mi
11:00 AM67 °FScattered clouds.3 mph68%29.86 "Hg12 mi
10:00 AM66 °FPassing clouds.6 mph65%29.86 "Hg11 mi
9:00 AM65 °FPassing clouds.5 mph70%29.86 "Hg9 mi
8:00 AM64 °FPassing clouds.6 mph77%29.85 "Hg7 mi
7:00 AM61 °FScattered clouds.3 mph81%29.84 "Hg6 mi
6:00 AM60 °FFog.2 mph86%29.82 "Hg6 mi
5:00 AM60 °FFog.3 mph85%29.80 "Hg5 mi
4:00 AM60 °FFog.6 mph87%29.78 "Hg6 mi
3:00 AM59 °FFog.6 mph92%29.78 "Hg6 mi
2:00 AM56 °FFog.2 mph96%29.78 "Hg5 mi
Weather by CustomWeather, © 2016

See weather overviewHow to use our weather pages